VIASAT-3 F1

Last updated on Mon Sep 07 2026 00:03:02 GMT+0000 (Coordinated Universal Time)

1 56370U 23060A 26249.00393594 .00000000 00000+0 00000+0 0 9996 2 56370 0.0150 173.5465 0000653 2.9431 81.0561 1.00270251 12241
UTC large
Height (km)
Speed (km/s)
/
Latitude / Longitude
Inclination (degrees)
Orbital Period (minutes)
Azimuth
Elevation
Range (km)
Doppler Factor

Next 0 passes for location: London (51.5072 / 0.1276)

No passes found over London.
VIASAT-3 F1